This is the latest recevied weather packets stored in our database for station/object KD4VIF. If no packets are shown the sender has not sent any weather packets the latest 10 day(s).
| Time | Temp. | Humidity | Pressure | Rain* | Wind** | Luminosity | Snow |
|---|---|---|---|---|---|---|---|
| 1777484298 | 22.22° C | 100% | 1010.3 hPa | 0 mm | 0.45 m/s, 133° | - | - |
| 1777482498 | 20.56° C | 100% | 1010.8 hPa | 0 mm | 0.45 m/s, 53° | - | - |
| 1777481599 | 20.56° C | 100% | 1011 hPa | 0 mm | 0.89 m/s, 234° | - | - |
| 1777480398 | 19.44° C | 100% | 1011.7 hPa | 0 mm | 0.45 m/s, 285° | - | - |
| 1777480098 | 19.44° C | 100% | 1011.9 hPa | 0 mm | 0 m/s | - | - |
| 1777477097 | 18.89° C | 100% | 1012.5 hPa | 0 mm | 0 m/s | - | - |
| 1777475297 | 19.44° C | 100% | 1013 hPa | 0 mm | 0 m/s | - | - |
| 1777466807 | 16.11° C | 100% | 1013.3 hPa | 0 mm | 0 m/s | - | - |
| 1777466597 | 16.11° C | 100% | 1013.3 hPa | 0 mm | 0 m/s | - | - |
| 1777461922 | 15° C | 100% | 1014.3 hPa | 0 mm | 0 m/s | - | - |
| 1777461798 | 15° C | 100% | 1014.3 hPa | 0 mm | 0 m/s | - | - |
| 1777461198 | 15.56° C | 100% | 1014.5 hPa | 0 mm | 0 m/s | - | - |
| 1777460897 | 15° C | 100% | 1014.4 hPa | 0 mm | 0 m/s | - | - |
| 1777460598 | 15° C | 100% | 1014.4 hPa | 0 mm | 0 m/s | - | - |
| 1777460297 | 15° C | 100% | 1014.4 hPa | 0 mm | 0 m/s | - | - |
| 1777459998 | 15° C | 100% | 1014.4 hPa | 0 mm | 0 m/s | - | - |
| 1777459398 | 15° C | 100% | 1014.3 hPa | 0 mm | 0 m/s | - | - |
| 1777458497 | 15° C | 100% | 1014.2 hPa | 0 mm | 0 m/s | - | - |
| 1777458197 | 15° C | 100% | 1014.2 hPa | 0 mm | 0 m/s | - | - |
| 1777457897 | 15° C | 100% | 1014.2 hPa | 0 mm | 0 m/s | - | - |
| 1777457772 | 15° C | 100% | 1014.1 hPa | 0 mm | 0 m/s | - | - |
| 1777457598 | 15° C | 100% | 1014.1 hPa | 0 mm | 0 m/s | - | - |
| 1777456311 | 15° C | 100% | 1014 hPa | 0 mm | 0 m/s | - | - |
| 1777456097 | 15° C | 100% | 1014 hPa | 0 mm | 0 m/s | - | - |
| 1777455198 | 15° C | 100% | 1013.9 hPa | 0 mm | 0 m/s | - | - |
* Rain latest hour (hover to see other rain measurements)
** Current wind speed in m/s (hover to see current wind gust speed)